This demonstration page uses our WeatherBlox Daily Observations layout. Learn more.

Left ArrowRight Arrow

Hourly Observations for April 15, 2021

Temp ( °F °C ) Dew Point ( °F °C ) Humidity (%) Winds ( mph kmh ) Pressure ( in mb ) Visibility ( mi km ) Precip ( " mm )
12:53 am 00:53 Clear 34 1.1 28 -2.2 79 79 NW 3 6 30.32 1027 10 16 0.00 0.00
1:53 am 01:53 Clear 32 0 26 -3.3 79 79 Calm 30.31 1026 10 16 0.00 0.00
2:53 am 02:53 Mostly Clear 33 0.6 27 -2.8 78 78 Calm 30.29 1026 10 16 0.00 0.00
3:53 am 03:53 Clear 35 1.7 29 -1.7 78 78 NNW 6 9 30.29 1026 10 16 0.00 0.00
4:53 am 04:53 Clear 35 1.7 28 -2.2 76 76 NNW 5 7 30.28 1025 10 16 0.00 0.00
5:53 am 05:53 Clear 34 1.1 28 -2.2 79 79 N 5 7 30.27 1025 10 16 0.00 0.00
6:53 am 06:53 Mostly Clear 30 -1.1 26 -3.3 85 85 Calm 30.27 1025 10 16 0.00 0.00
7:53 am 07:53 Sunny 34 1.1 28 -2.2 79 79 ENE 7 11 30.27 1025 10 16 0.00 0.00
8:53 am 08:53 Sunny 38 3.3 30 -1.1 73 73 E 7 11 30.29 1026 10 16 0.00 0.00
9:53 am 09:53 Sunny 41 5 31 -0.6 67 67 ENE 7 11 30.29 1026 10 16 0.00 0.00
10:53 am 10:53 Sunny 43 6.1 31 -0.6 63 63 ENE 7 11 30.27 1025 10 16 0.00 0.00
11:53 am 11:53 Partly Cloudy 44 6.7 31 -0.6 60 60 ENE 7 11 30.25 1024 10 16 0.00 0.00
12:53 pm 12:53 Partly Cloudy 45 7.2 30 -1.1 56 56 NNE 6 9 30.22 1023 10 16 0.00 0.00
1:53 pm 13:53 Sunny 50 10 32 0 50 50 NE 13 20 30.19 1022 10 16 0.00 0.00
2:53 pm 14:53 Mostly Sunny 49 9.4 31 -0.6 50 50 NNE 12 19 30.15 1021 10 16 0.00 0.00
3:53 pm 15:53 Partly Cloudy 51 10.6 32 0 48 48 ENE 9 15 30.13 1020 10 16 0.00 0.00
4:53 pm 16:53 Partly Cloudy 50 10 31 -0.6 48 48 ENE 5 7 30.11 1020 10 16 0.00 0.00
5:53 pm 17:53 Cloudy 50 10 31 -0.6 48 48 VRB 6 9 30.11 1020 10 16 0.00 0.00
6:53 pm 18:53 Cloudy 49 9.4 30 -1.1 48 48 ENE 7 11 30.11 1020 9 14 0.00 0.00
7:53 pm 19:53 Cloudy 48 8.9 31 -0.6 52 52 E 6 9 30.11 1020 10 16 0.00 0.00
8:53 pm 20:53 Cloudy 46 7.8 31 -0.6 56 56 ENE 9 15 30.11 1020 10 16 0.00 0.00
9:53 pm 21:53 Cloudy 44 6.7 32 0 63 63 ENE 10 17 30.11 1020 10 16 0.00 0.00
10:53 pm 22:53 Mostly Cloudy 42 5.6 32 0 68 68 ENE 12 19 30.15 1021 10 16 0.00 0.00
11:53 pm 23:53 Cloudy 40 4.4 32 0 73 73 NE 10 17 30.16 1021 10 16 0.00 0.00

Powered by AerisWeather